This demonstration page uses our WeatherBlox Daily Observations layout. Learn more.

Left ArrowRight Arrow

Hourly Observations for April 7, 2016

Temp ( °F °C ) Dew Point ( °F °C ) Humidity (%) Winds ( mph kmh ) Pressure ( in mb ) Visibility ( mi km ) Precip ( " mm )
12:54 am 00:54 Clear 42 5.6 32 0 68 68 NNW 5 7 29.89 1012 10 16 0.00 0.00
1:54 am 01:54 Clear 40 4.4 32 0 73 73 NE 10 17 29.91 1013 10 16 0.00 0.00
2:54 am 02:54 Clear 42 5.6 32 0 68 68 W 5 7 29.90 1013 10 16 0.00 0.00
3:54 am 03:54 Clear 43 6.1 33 0.6 68 68 W 5 7 29.90 1013 10 16 0.00 0.00
4:54 am 04:54 Clear 45 7.2 34 1.1 66 66 W 7 11 29.90 1013 10 16 0.00 0.00
5:54 am 05:54 Clear 46 7.8 35 1.7 66 66 W 7 11 29.91 1013 10 16 0.00 0.00
6:54 am 06:54 Clear 46 7.8 34 1.1 63 63 W 12 19 29.91 1013 10 16 0.00 0.00
7:54 am 07:54 Sunny 48 8.9 34 1.1 58 58 W 14 22 29.93 1013 10 16 0.00 0.00
8:54 am 08:54 Sunny 53 11.7 35 1.7 51 51 NW 22 35 29.93 1014 10 16 0.00 0.00
9:54 am 09:54 Sunny 57 13.9 33 0.6 41 41 NNW 32 52 29.94 1014 10 16 0.00 0.00
10:54 am 10:54 Mostly Sunny 59 15 28 -2.2 31 31 NW 33 54 29.96 1015 10 16 0.00 0.00
11:54 am 11:54 Mostly Sunny 60 15.6 25 -3.9 26 26 NW 36 57 29.97 1015 10 16 0.00 0.00
12:54 pm 12:54 Partly Cloudy 60 15.6 21 -6.1 22 22 NNW 39 63 29.98 1015 10 16 0.00 0.00
1:54 pm 13:54 Mostly Sunny 60 15.6 21 -6.1 22 22 NNW 32 52 29.98 1015 10 16 0.00 0.00
2:54 pm 14:54 Mostly Sunny 61 16.1 23 -5 23 23 NNW 32 52 29.98 1015 10 16 0.00 0.00
3:54 pm 15:54 Partly Cloudy 60 15.6 24 -4.4 25 25 NNW 31 50 30.00 1016 10 16 0.00 0.00
4:54 pm 16:54 Partly Cloudy 59 15 24 -4.4 26 26 NNW 33 54 30.02 1017 10 16 0.00 0.00
5:54 pm 17:54 Mostly Cloudy 58 14.4 24 -4.4 27 27 NW 25 41 30.04 1017 10 16 0.00 0.00
6:54 pm 18:54 Sunny 56 13.3 25 -3.9 30 30 N 26 43 30.06 1018 10 16 0.00 0.00
7:54 pm 19:54 Mostly Sunny 52 11.1 26 -3.3 37 37 N 21 33 30.08 1019 10 16 0.00 0.00
8:54 pm 20:54 Clear 44 6.7 27 -2.8 51 51 N 9 15 30.12 1020 10 16 0.00 0.00
9:54 pm 21:54 Clear 42 5.6 26 -3.3 53 53 N 3 6 30.14 1021 10 16 0.00 0.00
10:54 pm 22:54 Clear 40 4.4 26 -3.3 58 58 N 6 9 30.15 1021 10 16 0.00 0.00
11:54 pm 23:54 Clear 37 2.8 26 -3.3 65 65 N 5 7 30.15 1021 10 16 0.00 0.00

Powered by AerisWeather